Location: Wien
(48.2082°N, 16.3738°E)
Time: 08:33:27
(UTC+02:00)

UNISAT 6 - Pass Details

Date: 02 May 2024
Orbit: 593 x 668 km, 97.7° (Epoch: 20 May)

Event Time Altitude Azimuth Distance (km) Brightness Sun altitude
Rises 04:16:47 0° 152° (SSE) 2,881 ? -11.7°
Reaches altitude 10° 04:19:01 10° 147° (SSE) 1,968 ? -11.4°
Maximum altitude 04:23:09 51° 72° (ENE) 767 ? -10.8°
Drops below altitude 10° 04:27:15 10° 356° (N) 1,950 ? -10.3°
Sets 04:29:27 0° 352° (N) 2,851 ? -10.0°
